www.weatherandclimate.eu
WEATHER в Мысовом
Time
(UTC), date
21 27.11
00 28.11
03 28.11
06 28.11
09 28.11
12 28.11
15 28.11
18 28.11
21 28.11
00 29.11
03 29.11
06 29.11
09 29.11
12 29.11
15 29.11
18 29.11
21 29.11
00 30.11
03 30.11
06 30.11
09 30.11
12 30.11
15 30.11
18 30.11
21 30.11
00 1.12
03 1.12
06 1.12
09 1.12
12 1.12
15 1.12
18 1.12
21 1.12
00 2.12
03 2.12
06 2.12
09 2.12
12 2.12
15 2.12
18 2.12
21 2.12
00 3.12
03 3.12
06 3.12
09 3.12
12 3.12
15 3.12
18 3.12
21 3.12
00 4.12
03 4.12
06 4.12
09 4.12
12 4.12
15 4.12
Wind
(dir.,m/s)
Visibility Phenomena Clouds Т
(С)
Тd
(С)
f
(%)
Тe
(С)
Тes
(С)
Comfort P
(hPa)
Po
hPa)
Тmin
(С)
Tmax
(С)
R
(mm)
R24
(mm)
S
(sm)
SE 4 50 km ясно +5.9 +4.0 88 +2 +2 seasonable 1024.0 1022.4
SE 4 50 km ясно +5.7 +3.3 85 +2 +2 seasonable 1023.3 1021.7 +0.2
SE 3 20 km ясно +5.2 +4.0 92 +2 +2 seasonable 1022.6 1021.0 +4.0
SE 3 20 km 1/1 600 м
[Sc]
+5.6 +4.7 94 +2 +2 seasonable 1022.5 1020.9 +4.0
SE 3 20 km 6/6 600 м
[Sc]
+12.3 +7.6 73 +11 +12 warm 1021.8 1020.2
SE 7
{11}
50 km 4/4 600 м
[Sc]
+13.4 +5.8 60 +11 +11 warm 1020.5 1018.9
SE 2
{10}
20 km 4/3 600 м
[Sc Cc]
+11.5 +7.9 79 +10 +10 warm 1020.7 1019.1
E 3 20 km 3/3 600 м
[Sc Ci fib]
+8.4 +6.7 89 +6 +6 warm 1020.7 1019.1 +13.4
E 2 20 km 3/0
[Ci fib]
+8.2 +7.6 96 +6 +6 warm 1020.6 1019.0
SE 3 20 km 4/4 600 м
[Sc]
+7.4 +6.6 95 +4 +4 seasonable 1020.2 1018.6
SE 2 20 km ясно +6.8 +6.1 95 +4 +4 seasonable 1020.5 1018.9 +6.8
SE 2 50 km 3/0
[Ci sp]
+7.2 +6.6 96 +5 +5 warm 1021.0 1019.4 +6.8
S 3 50 km 9/3 600 м
[Cu hum Ci fib]
+12.8 +9.1 78 +11 +13 warm 1021.0 1019.4
S 4 50 km 8/1 600 м
[Sc Ci fib]
+13.1 +8.1 72 +11 +12 warm 1020.7 1019.1
S 3 20 km 8/0
[Ac trans Ci sp]
+10.8 +8.1 83 +9 +9 warm 1021.5 1019.9
SE 2 10 km 6/0
[Ci sp]
+7.2 +6.6 96 +5 +5 warm 1021.7 1020.1 +13.3
SE 2 500 m fog,skynotvisible ?/? +7.2 +6.7 97 +5 +5 warm 1021.7 1020.1
SE 3 4000 m mist {fog} 8/0
[Ci sp]
+6.9 +6.0 94 +4 +4 seasonable 1022.0 1020.4
E 3 500 m fog,skynotvisible ?/? +7.2 +6.7 97 +4 +4 seasonable 1021.7 1020.1 +6.1
E 4
{10}
10 km {fog} 8/0
[Cc]
+5.8 +4.4 91 +2 +2 seasonable 1021.6 1020.0 +5.5
E 7-11
{12}
10 km 8/0
[Ac trans Ci sp]
+7.5 +4.5 81 +3 +4 seasonable 1020.9 1019.3
E 8-12
{13}
10 km 9/1 300 м
[St Ci sp]
+7.3 +8.1 100 +2 +2 seasonable 1019.9 1018.3
E 7-10
{12}
10 km 6/0
[Ac trans Ci sp]
+7.3 +5.0 85 +3 +3 seasonable 1020.1 1018.5
E 8-11
{12}
20 km 6/0
[Ac trans Ci sp]
+7.1 +3.8 80 +2 +2 seasonable 1019.3 1017.7 +7.5
E 8-12
{13}
20 km 4/0
[Ac trans]
+6.9 +4.8 86 +2 +2 seasonable 1019.7 1018.1
E 7-12
{14}
20 km 10/10 600 м
[Sc]
+7.3 +4.4 82 +3 +3 seasonable 1018.3 1016.7
E 6-10
{12}
20 km 10/10 600 м
[Sc]
+6.9 +3.1 77 +3 +3 seasonable 1018.1 1016.5 +6.8
NE 4 20 km 10/8 600 м
[Sc Ac und]
+6.8 +2.4 74 +3 +3 seasonable 1018.6 1017.0 +6.7
NE 5 20 km 9/5 600 м
[Sc Ci sp]
+6.2 +3.9 85 +2 +3 seasonable 1018.3 1016.7
E 3 20 km 10/9 600 м
[Sc Ci sp]
+7.4 +4.2 80 +5 +5 warm 1017.8 1016.2
E 5 20 km 10/10 600 м
[Sc]
+7.2 +4.0 80 +3 +3 seasonable 1018.5 1016.9
E 5
{10}
20 km 10/10 600 м
[Sc]
+6.5 +3.4 81 +2 +2 seasonable 1019.6 1018.0 +11.9
E 6
{11}
20 km 10/9 600 м
[Sc Ci sp]
+5.8 +2.9 82 +1 +1 seasonable 1020.8 1019.2
E 5 20 km 10/10 600 м
[Sc]
+5.3 +3.4 88 +1 +1 seasonable 1021.7 1020.1
E 5
{11}
20 km 10/10 600 м
[Sc]
+5.3 +3.4 88 +1 +1 seasonable 1022.0 1020.4 +5.0
E 6
{10}
10 km 10/10 600 м
[Sc]
+4.9 +3.7 92 -0 -0 seasonable 1023.0 1021.4 +4.6
E 6
{11}
10 km 10/10 600 м
[Sc]
+4.9 +3.7 92 -0 -0 seasonable 1023.7 1022.1
E 6
{10}
10 km 10/8 600 м
[Sc Ac und]
+5.1 +3.2 88 -0 -0 seasonable 1023.7 1022.1
E 5
{10}
10 km 10/9 600 м
[Sc Ac und]
+5.3 +2.9 84 +1 +1 seasonable 1024.2 1022.6
E 6
{10}
20 km 10/8 600 м
[Sc Ac trans Ci sp]
+5.9 +3.5 85 +1 +1 seasonable 1024.3 1022.7 +5.9
E 4 10 km 10/10 600 м
[Sc]
+5.7 +3.8 88 +2 +2 seasonable 1025.0 1023.4
E 4 10 km 10/10 600 м
[Sc]
+5.6 +4.4 92 +2 +2 seasonable 1025.4 1023.8
E 4 4000 m mist 10/10 600 м
[Sc]
+5.5 +4.8 95 +1 +1 seasonable 1025.1 1023.5 +4.9
SE 6-11
{10}
10 km 10/10 300 м
[St]
+5.2 +4.0 92 0 0 seasonable 1024.7 1023.1 +5.1
NE 3
{11}
10 km 10/10 300 м
[Sc]
+5.2 +3.8 91 +2 +2 seasonable 1025.9 1024.3
E 6 20 km 8/6 600 м
[Sc Ac trans]
+5.5 +3.3 86 +1 +1 seasonable 1025.3 1023.7
E 5
{10}
20 km 9/8 600 м
[Sc Ac trans]
+5.3 +3.4 88 +1 +1 seasonable 1025.5 1023.9
E 4 20 km 10/10 600 м
[Sc]
+6.2 +4.1 86 +2 +2 seasonable 1025.4 1023.8 +6.2
E 5 10 km 8/8 600 м
[Sc]
+5.5 +4.1 91 +1 +1 seasonable 1024.7 1023.1
E 6
{11}
10 km 10/10 600 м
[Sc]
+5.1 +3.7 91 -0 -0 seasonable 1024.5 1022.9
E 8-13
{12}
10 km 10/8 600 м
[Sc Ac und]
+4.7 +3.7 93 -1 -1 seasonable 1024.1 1022.5 +4.7
E 10-14
{14}
20 km 8/8 300 м
[Sc]
+4.4 +3.4 93 -2 -2 seasonable 1024.4 1022.8 +4.4
E 8-11
{15}
20 km 8/8 600 м
[Sc]
+4.9 +3.0 87 -1 -1 seasonable 1024.4 1022.8
E 8-12
{14}
20 km 9/9 600 м
[Sc]
+5.1 +2.9 86 -1 -1 seasonable 1024.2 1022.6
E 8-12
{14}
10 km 9/9 600 м
[Sc]
+5.1 +3.2 88 -1 -1 seasonable 1024.4 1022.8
Weather station location Мысовое (Crimea, Russia): latitude 45.45 longitude 35.82 Height above sea level 13 m.
The archive shows weather in в Мысовом for the last week. For the whole month and for the previous months, starting from January 2011, you can obtain archived data by selecting the date range of interest from the drop-down list and clicking the "Find!".
*Decide who are you:
Attention! The time in the tables is UTC. To get the local time, you must add an amendment that is equal to 3 h.
See also the weather archive in nearby cities and at nearby weather stations:
Partners of our site:
Column explanations:
  • Wind - indicated wind speed in m/s - average for 10 minutes, gusts in time and between periods (in brackets) and the direction from which the wind blows: N - North, NE - North-East, E - East, SE - South-East , S - South, SW - South-West, W - West, NW - North-West.
  • Visibility - horizontal visibility range in meters or kilometers. When visibility is from 1 to 10 km in the absence of precipitation, haze is usually observed, and when visibility is reduced to 1 km or less, fog is observed. In dry weather, visibility may be reduced by smoke, dust, or haze.
  • Phenomena - atmospheric phenomena observed during the period or in the last hour before the period are indicated; curly brackets indicate phenomena observed between periods (1-3 hours before the period); square brackets indicate hail or ice deposits with their diameter in mm.
  • Clouds - are through slash total and lower clouds in points, and the height of the lower border of the cloud in meters; square brackets contain cloud forms: Ci - Cirrus, Cs - Cirrostratus, Cc - Cirrocumulus, Ac - Altocumulus, As - Altostratus, Sc - Stratocumulus, Ns - Nimbostratus, Cu - Cumulus, Cb - Cumulonimbus. For more information about cloud classification, see the cloud Atlas (PDF).
  • T - Air temperature - temperature measured at a height of 2 m above the ground.
  • Td - Dew point temperature - the temperature is lowered to that contained in the air, the water vapor reaches saturation.
  • f - Relative humidity measured at a height of 2 m above the ground.
  • Te - Effective temperature is the temperature that a seasonally dressed person feels in the shade. Characteristic of stuffy weather. The calculation takes into account the influence of air humidity and wind speed on a person’s heat.
  • Tes - Effective sun temperature - the temperature that a person feels, adjusted for solar heating. Characteristics of the sultry weather. Depends on the height of the sun above the horizon, cloud cover and wind speed. At night, in cloudy weather, as well as in winds of 12 m/s or more, the correction is zero.
  • P - Atmospheric pressure - atmospheric pressure reduced to sea level.
  • Po - Atmospheric pressure - atmospheric pressure measured at the station level.
  • Tmin - Minimum temperature - minimum air temperature at a height of 2 m above the ground.
  • Tmax - Maximum temperature - maximum air temperature at a height of 2 m above the ground.
  • R - Precipitation - The amount of precipitation over a period of time, mm. When you hover over the number, the time period for which the specified amount of precipitation has fallen.
  • R24 - Количество осадков - The amount of precipitation in 24 hours, mm.
  • S - Snow cover - The height of the snow cover. When you hover the mouse over the number - the state of the snow cover and the degree of coverage in points.